Time,TemperatureF,DewpointF,PressureIn,WindDirection,WindDirectionDegrees,WindSpeedMPH,WindSpeedGustMPH,Humidity,HourlyPrecipIn,Conditions,Clouds,dailyrainin,SoftwareType,DateUTC
2013-03-12 00:14:00,52.0,47.9,30.00,SSW,202,4.2,-999.0,86,-99.99,,,0.00,Acu-Link.com,2013-03-12 04:14:00,
2013-03-12 00:29:00,52.3,48.2,30.01,NNE,22,4.2,-999.0,86,-99.99,,,0.00,Acu-Link.com,2013-03-12 04:29:00,
2013-03-12 00:44:00,51.8,48.1,30.01,ENE,67,1.7,-999.0,87,-99.99,,,0.00,Acu-Link.com,2013-03-12 04:44:00,
2013-03-12 00:59:00,52.3,48.2,29.99,East,90,5.3,-999.0,86,-99.99,,,0.00,Acu-Link.com,2013-03-12 04:59:00,
2013-03-12 01:14:00,52.5,48.1,29.98,SSW,202,3.2,-999.0,85,-99.99,,,0.00,Acu-Link.com,2013-03-12 05:14:00,
2013-03-12 01:30:00,52.7,48.3,29.95,East,90,2.2,-999.0,85,-99.99,,,0.00,Acu-Link.com,2013-03-12 05:30:00,
2013-03-12 01:45:00,52.7,48.3,29.94,ESE,112,3.2,-999.0,85,-99.99,,,0.00,Acu-Link.com,2013-03-12 05:45:00,
2013-03-12 02:00:00,52.2,47.8,29.94,ENE,67,2.2,-999.0,85,-99.99,,,0.00,Acu-Link.com,2013-03-12 06:00:00,
2013-03-12 02:16:00,52.0,47.9,29.94,ESE,112,2.2,-999.0,86,-99.99,,,0.00,Acu-Link.com,2013-03-12 06:16:00,
2013-03-12 02:46:00,51.8,47.7,29.92,SSE,157,6.8,-999.0,86,-99.99,,,0.00,Acu-Link.com,2013-03-12 06:46:00,
2013-03-12 03:01:00,51.8,47.4,29.92,SE,135,2.7,-999.0,85,-99.99,,,0.00,Acu-Link.com,2013-03-12 07:01:00,
2013-03-12 03:16:00,52.0,47.3,29.91,ESE,112,6.3,-999.0,84,-99.99,,,0.00,Acu-Link.com,2013-03-12 07:16:00,
2013-03-12 03:32:00,52.2,47.5,29.91,North,0,2.7,-999.0,84,-99.99,,,0.00,Acu-Link.com,2013-03-12 07:32:00,
2013-03-12 03:47:00,52.0,47.3,29.92,NNE,22,3.7,-999.0,84,-99.99,,,0.00,Acu-Link.com,2013-03-12 07:47:00,
2013-03-12 04:02:00,52.2,47.2,29.91,SSE,157,3.2,-999.0,83,-99.99,,,0.00,Acu-Link.com,2013-03-12 08:02:00,
2013-03-12 04:17:00,52.2,47.2,29.90,SW,225,2.2,-999.0,83,-99.99,,,0.00,Acu-Link.com,2013-03-12 08:17:00,
2013-03-12 04:32:00,52.5,47.2,29.90,North,0,2.2,-999.0,82,-99.99,,,0.00,Acu-Link.com,2013-03-12 08:32:00,
2013-03-12 04:48:00,52.7,47.4,29.90,East,90,1.7,-999.0,82,-99.99,,,0.00,Acu-Link.com,2013-03-12 08:48:00,
2013-03-12 05:03:00,52.7,47.7,29.89,East,90,2.7,-999.0,83,-99.99,,,0.00,Acu-Link.com,2013-03-12 09:03:00,
2013-03-12 05:18:00,52.3,47.9,29.89,NE,45,2.2,-999.0,85,-99.99,,,0.00,Acu-Link.com,2013-03-12 09:18:00,
2013-03-12 05:33:00,52.2,48.1,29.88,ESE,112,7.3,-999.0,86,-99.99,,,0.00,Acu-Link.com,2013-03-12 09:33:00,
2013-03-12 05:49:00,52.0,47.9,29.88,ESE,112,4.7,-999.0,86,-99.99,,,0.01,Acu-Link.com,2013-03-12 09:49:00,
2013-03-12 06:04:00,52.0,48.3,29.87,ESE,112,3.7,-999.0,87,-99.99,,,0.01,Acu-Link.com,2013-03-12 10:04:00,
2013-03-12 06:34:00,51.6,47.6,29.89,NNE,22,2.2,-999.0,86,-99.99,,,0.01,Acu-Link.com,2013-03-12 10:34:00,
2013-03-12 06:50:00,51.3,47.9,29.89,ESE,112,4.2,-999.0,88,-99.99,,,0.03,Acu-Link.com,2013-03-12 10:50:00,
2013-03-12 07:05:00,51.3,48.2,29.87,NNE,22,2.7,-999.0,89,-99.99,,,0.04,Acu-Link.com,2013-03-12 11:05:00,
2013-03-12 07:20:00,51.1,48.0,29.87,SE,135,4.2,-999.0,89,-99.99,,,0.05,Acu-Link.com,2013-03-12 11:20:00,
2013-03-12 07:35:00,51.6,48.8,29.87,East,90,2.7,-999.0,90,-99.99,,,0.06,Acu-Link.com,2013-03-12 11:35:00,
2013-03-12 07:50:00,51.8,48.7,29.87,SSE,157,4.2,-999.0,89,-99.99,,,0.06,Acu-Link.com,2013-03-12 11:50:00,
2013-03-12 08:06:00,52.0,48.9,29.86,South,180,5.3,-999.0,89,-99.99,,,0.08,Acu-Link.com,2013-03-12 12:06:00,
2013-03-12 08:21:00,52.0,48.9,29.86,ENE,67,3.2,-999.0,89,-99.99,,,0.09,Acu-Link.com,2013-03-12 12:21:00,
2013-03-12 08:36:00,52.3,49.2,29.86,ESE,112,5.8,-999.0,89,-99.99,,,0.10,Acu-Link.com,2013-03-12 12:36:00,
2013-03-12 08:51:00,52.7,49.2,29.85,South,180,4.2,-999.0,88,-99.99,,,0.10,Acu-Link.com,2013-03-12 12:51:00,
2013-03-12 09:07:00,52.9,49.4,29.84,South,180,2.2,-999.0,88,-99.99,,,0.11,Acu-Link.com,2013-03-12 13:07:00,
2013-03-12 09:22:00,53.2,50.0,29.85,North,0,3.2,-999.0,89,-99.99,,,0.12,Acu-Link.com,2013-03-12 13:22:00,
2013-03-12 09:37:00,53.2,49.7,29.84,WSW,247,2.7,-999.0,88,-99.99,,,0.13,Acu-Link.com,2013-03-12 13:37:00,
2013-03-12 09:52:00,53.2,50.0,29.83,ESE,112,4.2,-999.0,89,-99.99,,,0.13,Acu-Link.com,2013-03-12 13:52:00,
2013-03-12 10:07:00,53.2,50.0,29.82,West,270,4.2,-999.0,89,-99.99,,,0.15,Acu-Link.com,2013-03-12 14:07:00,
2013-03-12 10:23:00,53.4,50.5,29.82,East,90,3.2,-999.0,90,-99.99,,,0.17,Acu-Link.com,2013-03-12 14:23:00,
2013-03-12 10:38:00,53.4,50.2,29.81,East,90,4.2,-999.0,89,-99.99,,,0.19,Acu-Link.com,2013-03-12 14:38:00,
2013-03-12 10:53:00,53.1,50.2,29.81,NE,45,5.3,-999.0,90,-99.99,,,0.20,Acu-Link.com,2013-03-12 14:53:00,
2013-03-12 11:08:00,53.2,50.6,29.81,SSW,202,2.7,-999.0,91,-99.99,,,0.24,Acu-Link.com,2013-03-12 15:08:00,
2013-03-12 11:23:00,53.2,50.6,29.79,SSW,202,2.7,-999.0,91,-99.99,,,0.27,Acu-Link.com,2013-03-12 15:23:00,
2013-03-12 11:39:00,53.2,50.6,29.78,SSW,202,3.2,-999.0,91,-99.99,,,0.33,Acu-Link.com,2013-03-12 15:39:00,
2013-03-12 11:54:00,53.2,50.6,29.77,NNE,22,3.7,-999.0,91,-99.99,,,0.35,Acu-Link.com,2013-03-12 15:54:00,
2013-03-12 12:09:00,53.6,51.0,29.76,SSW,202,3.2,-999.0,91,-99.99,,,0.37,Acu-Link.com,2013-03-12 16:09:00,
2013-03-12 12:25:00,53.8,51.2,29.76,SSE,157,2.7,-999.0,91,-99.99,,,0.38,Acu-Link.com,2013-03-12 16:25:00,
2013-03-12 12:40:00,53.8,50.9,29.75,ESE,112,3.2,-999.0,90,-99.99,,,0.42,Acu-Link.com,2013-03-12 16:40:00,
2013-03-12 12:55:00,53.8,50.9,29.72,ENE,67,3.2,-999.0,90,-99.99,,,0.43,Acu-Link.com,2013-03-12 16:55:00,
2013-03-12 13:10:00,53.6,51.0,29.72,South,180,2.7,-999.0,91,-99.99,,,0.45,Acu-Link.com,2013-03-12 17:10:00,
2013-03-12 13:26:00,53.4,50.8,29.71,ESE,112,2.2,-999.0,91,-99.99,,,0.48,Acu-Link.com,2013-03-12 17:26:00,
2013-03-12 13:41:00,53.2,50.9,29.70,ESE,112,2.2,-999.0,92,-99.99,,,0.54,Acu-Link.com,2013-03-12 17:41:00,
2013-03-12 13:56:00,53.4,51.1,29.68,ESE,112,2.2,-999.0,92,-99.99,,,0.58,Acu-Link.com,2013-03-12 17:56:00,
2013-03-12 14:12:00,53.2,50.9,29.67,South,180,5.3,-999.0,92,-99.99,,,0.62,Acu-Link.com,2013-03-12 18:12:00,
2013-03-12 14:27:00,52.9,50.6,29.65,SSW,202,4.7,-999.0,92,-99.99,,,0.65,Acu-Link.com,2013-03-12 18:27:00,
2013-03-12 14:42:00,53.2,50.9,29.64,ESE,112,6.3,-999.0,92,-99.99,,,0.68,Acu-Link.com,2013-03-12 18:42:00,
2013-03-12 14:57:00,53.6,51.3,29.62,ESE,112,3.7,-999.0,92,-99.99,,,0.71,Acu-Link.com,2013-03-12 18:57:00,
2013-03-12 15:27:00,53.2,51.2,29.60,South,180,7.3,-999.0,93,-99.99,,,0.77,Acu-Link.com,2013-03-12 19:27:00,
2013-03-12 15:43:00,53.4,51.4,29.60,NNE,22,4.7,-999.0,93,-99.99,,,0.84,Acu-Link.com,2013-03-12 19:43:00,
2013-03-12 15:58:00,52.9,50.9,29.60,East,90,9.4,-999.0,93,-99.99,,,0.88,Acu-Link.com,2013-03-12 19:58:00,
2013-03-12 16:13:00,53.6,51.3,29.58,SE,135,4.7,-999.0,92,-99.99,,,0.96,Acu-Link.com,2013-03-12 20:13:00,
2013-03-12 16:28:00,55.0,52.1,29.59,West,270,9.4,-999.0,90,-99.99,,,0.96,Acu-Link.com,2013-03-12 20:28:00,
2013-03-12 16:43:00,56.1,52.9,29.57,SSE,157,4.2,-999.0,89,-99.99,,,0.96,Acu-Link.com,2013-03-12 20:43:00,
2013-03-12 16:59:00,55.8,52.9,29.57,East,90,8.3,-999.0,90,-99.99,,,0.96,Acu-Link.com,2013-03-12 20:59:00,
2013-03-12 17:14:00,55.8,53.2,29.57,South,180,7.8,-999.0,91,-99.99,,,0.97,Acu-Link.com,2013-03-12 21:14:00,
2013-03-12 17:29:00,55.6,53.3,29.57,South,180,5.3,-999.0,92,-99.99,,,0.97,Acu-Link.com,2013-03-12 21:29:00,
2013-03-12 17:45:00,56.7,54.4,29.58,SE,135,0.0,-999.0,92,-99.99,,,0.98,Acu-Link.com,2013-03-12 21:45:00,
2013-03-12 18:00:00,56.8,54.2,29.59,ESE,112,5.8,-999.0,91,-99.99,,,0.98,Acu-Link.com,2013-03-12 22:00:00,
2013-03-12 18:15:00,57.0,54.4,29.60,SE,135,2.7,-999.0,91,-99.99,,,0.98,Acu-Link.com,2013-03-12 22:15:00,
2013-03-12 18:46:00,57.4,54.8,29.63,West,270,2.2,-999.0,91,-99.99,,,0.98,Acu-Link.com,2013-03-12 22:46:00,
2013-03-12 19:17:00,55.4,50.6,29.66,West,270,7.8,-999.0,84,-99.99,,,0.98,Acu-Link.com,2013-03-12 23:17:00,
2013-03-12 19:32:00,54.5,49.1,29.67,WSW,247,4.7,-999.0,82,-99.99,,,0.98,Acu-Link.com,2013-03-12 23:32:00,
2013-03-12 20:02:00,53.2,46.9,29.68,WNW,292,3.7,-999.0,79,-99.99,,,0.98,Acu-Link.com,2013-03-13 00:02:00,
2013-03-12 20:17:00,53.1,47.1,29.69,WNW,292,2.7,-999.0,80,-99.99,,,0.98,Acu-Link.com,2013-03-13 00:17:00,
2013-03-12 20:32:00,52.7,45.3,29.70,NW,315,3.2,-999.0,76,-99.99,,,0.98,Acu-Link.com,2013-03-13 00:32:00,
2013-03-12 20:47:00,51.6,43.6,29.71,WNW,292,5.3,-999.0,74,-99.99,,,0.98,Acu-Link.com,2013-03-13 00:47:00,
2013-03-12 21:02:00,50.5,42.5,29.71,East,90,7.3,-999.0,74,-99.99,,,0.98,Acu-Link.com,2013-03-13 01:02:00,
2013-03-12 21:17:00,49.6,42.4,29.72,WNW,292,8.3,-999.0,76,-99.99,,,0.98,Acu-Link.com,2013-03-13 01:17:00,
2013-03-12 21:32:00,48.4,40.8,29.73,WNW,292,9.4,-999.0,75,-99.99,,,0.98,Acu-Link.com,2013-03-13 01:32:00,
2013-03-12 21:48:00,48.0,40.1,29.73,NNW,337,4.2,-999.0,74,-99.99,,,0.98,Acu-Link.com,2013-03-13 01:48:00,
2013-03-12 22:03:00,47.8,39.9,29.74,ESE,112,10.9,-999.0,74,-99.99,,,0.98,Acu-Link.com,2013-03-13 02:03:00,
2013-03-12 22:18:00,47.5,39.6,29.74,East,90,5.8,-999.0,74,-99.99,,,0.98,Acu-Link.com,2013-03-13 02:18:00,
2013-03-12 22:33:00,46.9,38.7,29.74,NW,315,6.3,-999.0,73,-99.99,,,0.98,Acu-Link.com,2013-03-13 02:33:00,
2013-03-12 22:48:00,46.4,38.6,29.74,NNW,337,6.8,-999.0,74,-99.99,,,0.98,Acu-Link.com,2013-03-13 02:48:00,
2013-03-12 23:04:00,46.0,38.5,29.74,NW,315,5.8,-999.0,75,-99.99,,,0.98,Acu-Link.com,2013-03-13 03:04:00,
2013-03-12 23:19:00,45.5,38.0,29.74,NW,315,5.8,-999.0,75,-99.99,,,0.98,Acu-Link.com,2013-03-13 03:19:00,
2013-03-12 23:34:00,45.1,38.0,29.76,NNE,22,6.3,-999.0,76,-99.99,,,0.98,Acu-Link.com,2013-03-13 03:34:00,
2013-03-12 23:49:00,45.0,38.2,29.76,NNW,337,6.8,-999.0,77,-99.99,,,0.98,Acu-Link.com,2013-03-13 03:49:00,